Hourly Weather Roundup
Issued by NWS Central Illinois

Home | Current Version | Previous Version | Text Only | Print | Product List | Glossary On
Versions: 1 2 3 4 5 6 7 8 9 10 11 12 13 14 15 16 17 18 19 20 21 22 23 24 25 26 27 28 29 30 31 32 33 34 35 36 37 38 39 40 41 42 43 44 45 46 47 48 49 50
000
NZUS43 KILX 310410
HWRILX

AREA WEATHER ROUNDUP
NATIONAL WEATHER SERVICE, LINCOLN IL
1000 PM CST FRI JAN 30 2015


CITY           SKY/WX    TMP DP  RH WIND       PRES   REMARKS
BLOOMINGTON    CLEAR     22  20  92 S7        30.40F WCI  14
CHAMPAIGN      CLEAR     23  19  85 S5        30.41F WCI  17
DECATUR        CLEAR     24  21  88 S5        30.41F WCI  18
FLORA          CLEAR     25  23  91 CALM      30.45F
GALESBURG      CLEAR     24  20  86 S5        30.37F WCI  18
JACKSONVILLE   CLEAR     30  19  63 S5        30.40F WCI  25
LACON          CLEAR     20  17  88 CALM      30.39F
LAWRENCEVILLE  CLEAR     26  22  84 CALM      30.45F
LITCHFIELD     FAIR      25  20  80 SE5       30.42F WCI  19
$$


CITY           SKY/WX    TMP DP  RH WIND       PRES   REMARKS
LINCOLN        CLEAR     27  23  84 S3        30.43S
MACOMB         CLEAR     25  21  85 S3        30.40F
MATTOON        CLEAR     22  18  85 S3        30.41F
MT CARMEL AP   CLEAR     30  25  80 CALM      30.45S
OLNEY-NOBLE AP CLEAR     25  21  86 CALM      30.45S
PARIS          CLEAR     24  22  93 CALM      30.44F
PEORIA         CLEAR     25  17  72 S3        30.40F
PONTIAC        CLEAR     26  23  89 CALM      30.40F
RANTOUL        CLEAR     25  21  84 S3        30.40F
ROBINSON       CLEAR     22  20  92 CALM      30.46S
SPRINGFIELD    CLEAR     26  19  74 S5        30.41F WCI  20
TAYLORVILLE    CLEAR     27  21  80 S6        30.42F WCI  20
$$

...REGIONAL REPORTS...


CITY           SKY/WX    TMP DP  RH WIND       PRES   REMARKS
CHICAGO O`HARE PTCLDY    21  13  71 SW3       30.37F
KANKAKEE       CLEAR     23  20  89 S3        30.40F
MOLINE         PTCLDY    22  16  78 CALM      30.36F
MOUNT VERNON   CLEAR     21  16  79 CALM      30.45S
PITTSFIELD     PTCLDY    26  23  88 CALM      30.40F
QUINCY         PTCLDY    27  17  66 S5        30.38F WCI  22
ROCKFORD       PTCLDY    18  12  77 S5        30.37F WCI  11
$$


CITY           SKY/WX    TMP DP  RH WIND       PRES   REMARKS
BURLINGTON     CLEAR     26  19  74 S6        30.36F WCI  19
CEDAR RAPIDS   CLEAR     21  15  78 S6        30.31F WCI  13
DES MOINES     MOCLDY    28  15  58 S7        30.30F WCI  21
KIRKSVILLE     MOCLDY    26  19  74 SW7       30.36F WCI  18
OTTUMWA        CLEAR     23  16  74 S6        30.32F WCI  16
ST LOUIS       MOCLDY    33  20  58 SE6       30.42F WCI  28
$$


CITY           SKY/WX    TMP DP  RH WIND       PRES   REMARKS
TERRE HAUTE    CLEAR     24  18  77 CALM      30.44F
EVANSVILLE     CLEAR     29  21  72 CALM      30.46F
INDIANAPOLIS   CLEAR     22  15  75 CALM      30.42F
LAFAYETTE      CLEAR     20  17  88 CALM      30.42F
MADISON        PTCLDY    19   9  65 S5        30.32F WCI  12
MILWAUKEE      PTCLDY    21  10  62 SW10      30.34F WCI  10
$$





USA.gov is the U.S. government's official web portal to all federal, state and local government web resources and services.